Content
SEND FEEDBACK

Daily
Averages
Monthly
Summary
United States of America

ACHANG BAY, GUAM


Home > North America > United States > Guam
Elevation: 30 feet     Latitude: 13 16N     Longitude: 144 45E

WEATHER
 
SELECT A DAY
Number of Records: 351,678;   Date Range: 1/1/95 - 10/21/14
 
SHARE

PRINT THIS DATA

[ ← Previous Day ]
WEATHER ALMANAC - SEPTEMBER 16, 2013
[ Next Day → ]
[ °C ]   °F
Weather ElementAverageHighLow
Temperature78.6 °F86 °F (12:15 pm)75.2 °F (12:48 am)
Dewpoint75.5 °F78.8 °F (12:15 pm)73 °F (5:58 pm)
Humidity90.3 %100 % (5:35 pm)74 % (1:58 pm)
Barometer29.73 in29.79 in (12:23 am)29.57 in (1:58 pm)
Wind Speed10.2 mph16.1 mph (3:58 am)
Wind Gust31.1 mph (5:10 pm)
Weather ElementAverage
Visibility7.6 mi
Wind DirectionSW (228.3 °)

Weather ElementTotal
Precipitation1.73 in
Cooling Degree Days15.6 (Base 65)
Growing Degree Days30.6 (Base 50)
Averaged from 103 records on September 16, 2013
WEATHER CONDITIONS BREAKOUT
WIND DIRECTION BREAKOUT
WEATHER BY HOUR - SEPTEMBER 16, 2013
[ °C ]   °F
Local TimeTemperatureDewpointHumidityBarometerVisibilityWind DirectionWind SpeedGust SpeedPrecipitationEventsConditions
12:20 AM78.8 °F77.0 °F94 %29.78 in9.0 miNorth (360°)11.5 mph23.0 mphMostly Cloudy
12:23 AM78.8 °F77.0 °F94 %29.79 in4.0 miNorth (350°)11.5 mph23.0 mphRainRain
12:28 AM78.8 °F77.0 °F94 %29.79 in2.5 miNW (320°)12.7 mph19.6 mphRainHeavy Rain
12:33 AM77.0 °F75.2 °F94 %29.79 in4.0 miNNW (340°)12.7 mphRainHeavy Rain
12:48 AM75.2 °F73.4 °F94 %29.79 in10.0 miNNW (330°)12.7 mphRainLight Rain
12:53 AM75.2 °F73.4 °F94 %29.79 in10.0 miNW (320°)13.8 mphRainLight Rain
12:58 AM75.6 °F73.9 °F95 %29.66 in10.0 miNNW (330°)11.5 mph0.06 inLight Drizzle
12:59 AM75.2 °F73.4 °F94 %29.78 in10.0 miNNW (330°)12.7 mphPartly Cloudy
1:08 AM75.2 °F73.4 °F94 %29.77 in10.0 miNW (310°)10.4 mphRainLight Rain
1:17 AM75.2 °F73.4 °F94 %29.77 in10.0 miWNW (300°)11.5 mphPartly Cloudy
1:58 AM77.2 °F74.7 °F92 %29.65 in10.0 miNW (320°)5.8 mph0.00 inPartly Cloudy
2:13 AM77.0 °F75.2 °F94 %29.77 in9.0 miNNW (340°)8.1 mphLight Drizzle
2:23 AM77.0 °F75.2 °F94 %29.76 in10.0 miNNW (330°)6.9 mphPartly Cloudy
2:39 AM77.0 °F75.2 °F94 %29.76 in10.0 miWNW (300°)10.4 mphRainLight Rain
2:49 AM77.0 °F75.2 °F94 %29.75 in10.0 miWNW (300°)9.2 mphPartly Cloudy
2:58 AM76.3 °F74.8 °F95 %29.62 in10.0 miNW (310°)10.4 mph0.00 inPartly Cloudy
3:58 AM77.7 °F74.7 °F90 %29.62 in10.0 miNNW (340°)16.1 mph20.7 mphPartly Cloudy
4:58 AM78.1 °F74.5 °F89 %29.62 in10.0 miNorth (350°)15.0 mphClear
5:38 AM78.8 °F75.2 °F89 %29.74 in10.0 miNNE (20°)12.7 mph17.3 mphMostly Cloudy
5:49 AM78.8 °F75.2 °F89 %29.75 in10.0 miNorth (10°)10.4 mph28.8 mphRainLight Rain
5:58 AM78.8 °F73.4 °F83 %29.63 in10.0 miNorth (360°)10.4 mph18.4 mph0.00 inLight Drizzle
5:59 AM78.8 °F73.4 °F83 %29.75 in10.0 miNNE (30°)11.5 mph18.4 mphScattered Clouds
6:01 AM78.8 °F73.4 °F83 %29.75 in10.0 miNNE (20°)11.5 mph18.4 mphRainLight Rain
6:06 AM77.0 °F75.2 °F94 %29.76 in10.0 miVariable5.8 mph18.4 mphRainLight Rain
6:11 AM77.0 °F75.2 °F94 %29.75 in10.0 miNNW (340°)12.7 mph18.4 mphLight Drizzle
6:16 AM77.0 °F75.2 °F94 %29.75 in10.0 miNorth (350°)15.0 mphLight Drizzle
6:26 AM77.0 °F75.2 °F94 %29.76 in10.0 miNNW (340°)13.8 mph21.9 mphRainRain
6:31 AM77.0 °F75.2 °F94 %29.76 in10.0 miNorth (350°)11.5 mphRainLight Rain
6:36 AM77.0 °F75.2 °F94 %29.76 in10.0 miNNW (340°)10.4 mphLight Drizzle
6:58 AM77.4 °F74.3 °F90 %29.64 in10.0 miNorth (350°)10.4 mph0.02 inLight Drizzle
7:23 AM77.0 °F75.2 °F94 %29.77 in10.0 miNE (50°)8.1 mphPartly Cloudy
7:45 AM78.8 °F77.0 °F94 %29.78 in10.0 miNNW (340°)16.1 mph20.7 mphRainRain
7:58 AM77.4 °F74.5 °F91 %29.66 in10.0 miWNW (300°)8.1 mph0.04 inRainLight Rain
8:03 AM77.0 °F75.2 °F94 %29.78 in10.0 miNNW (330°)11.5 mphLight Drizzle
8:04 AM77.0 °F75.2 °F94 %29.79 in10.0 miNNW (340°)16.1 mph25.3 mphMostly Cloudy
8:09 AM78.8 °F75.2 °F89 %29.79 in10.0 miNorth (360°)15.0 mph25.3 mphMostly Cloudy
8:14 AM78.8 °F75.2 °F89 %29.79 in10.0 miNorth (360°)15.0 mph25.3 mphMostly Cloudy
8:24 AM78.8 °F75.2 °F89 %29.79 in10.0 miNorth (10°)10.4 mph19.6 mphMostly Cloudy
8:34 AM80.6 °F75.2 °F84 %29.79 in10.0 miNNE (30°)8.1 mph18.4 mphMostly Cloudy
8:44 AM80.6 °F77.0 °F89 %29.79 in10.0 miNNW (340°)6.9 mphScattered Clouds
8:58 AM81.3 °F76.1 °F84 %29.67 in10.0 miNorth (360°)10.4 mph0.00 inPartly Cloudy
9:43 AM84.2 °F77.0 °F79 %29.78 in10.0 miNorth (10°)16.1 mph29.9 mphScattered Clouds
9:46 AM82.4 °F77.0 °F84 %29.78 in3.0 miNorth (10°)13.8 mph29.9 mphRainLight Rain
9:51 AM80.6 °F75.2 °F84 %29.78 in1.2 miNorth (10°)10.4 mph27.6 mphLight Drizzle
9:56 AM80.6 °F77.0 °F89 %29.78 in1.8 miNorth (10°)8.1 mph16.1 mphLight Drizzle
9:58 AM79.9 °F76.5 °F89 %29.66 in1.8 miVariable6.9 mph16.1 mph0.00 inLight Drizzle
9:59 AM80.6 °F77.0 °F89 %29.77 in5.0 miNorth (10°)11.5 mph18.4 mphMostly Cloudy
10:04 AM78.8 °F77.0 °F94 %29.77 in10.0 miNorth (360°)13.8 mph18.4 mphMostly Cloudy
10:09 AM80.6 °F77.0 °F89 %29.77 in10.0 miNorth (350°)12.7 mph19.6 mphScattered Clouds
10:54 AM84.2 °F77.0 °F79 %29.76 in10.0 miNorth (360°)10.4 mphMostly Cloudy
10:58 AM84.2 °F76.6 °F78 %29.64 in10.0 miNorth (350°)10.4 mph0.00 inMostly Cloudy
11:08 AM84.2 °F77.0 °F79 %29.76 in10.0 miNNW (340°)10.4 mphScattered Clouds
11:58 AM84.7 °F77.5 °F79 %29.62 in10.0 miNorth (350°)8.1 mphPartly Cloudy
12:15 PM86.0 °F78.8 °F79 %29.74 in10.0 miNNW (340°)10.4 mphRainRain
12:25 PM84.2 °F78.8 °F84 %29.74 in10.0 miNNW (340°)12.7 mphRainLight Rain
12:26 PM84.2 °F78.8 °F84 %29.74 in10.0 miNNW (340°)11.5 mphMostly Cloudy
12:58 PM85.6 °F77.0 °F75 %29.61 in10.0 miNNW (340°)11.5 mph0.00 inPartly Cloudy
1:58 PM85.6 °F76.6 °F74 %29.57 in10.0 miNW (320°)15.0 mphPartly Cloudy
2:58 PM84.9 °F76.6 °F76 %29.57 in10.0 miNW (320°)12.7 mphScattered Clouds
3:58 PM83.8 °F76.1 °F77 %29.57 in10.0 miNNW (330°)10.4 mphScattered Clouds
4:00 PM84.2 °F77.0 °F79 %29.70 in4.0 miNNW (330°)13.8 mph23.0 mphRainHeavy Rain
4:05 PM80.6 °F77.0 °F89 %29.69 in1.8 miNW (320°)10.4 mph23.0 mphRainHeavy Rain
4:10 PM80.6 °F77.0 °F89 %29.70 in2.0 miWest (270°)10.4 mphRainLight Rain
4:15 PM80.6 °F77.0 °F89 %29.70 in8.0 miWest (270°)8.1 mphRainLight Rain
4:19 PM80.6 °F77.0 °F89 %29.70 in10.0 miWest (280°)8.1 mphMostly Cloudy
4:39 PM78.8 °F77.0 °F94 %29.70 in10.0 miWest (280°)6.9 mphMostly Cloudy
4:44 PM80.6 °F78.8 °F94 %29.71 in10.0 miNW (320°)8.1 mphMostly Cloudy
4:58 PM81.7 °F77.4 °F87 %29.59 in10.0 miNW (320°)8.1 mph0.08 inMostly Cloudy
5:10 PM80.6 °F77.0 °F89 %29.72 in1.8 miNorth (10°)15.0 mph31.1 mphRainLight Rain
5:15 PM78.8 °F77.0 °F94 %29.72 in1.0 miNNW (340°)11.5 mph31.1 mphRainHeavy Rain
5:20 PM78.8 °F75.2 °F89 %29.72 in1.2 miNNW (340°)13.8 mphRainHeavy Rain
5:25 PM77.0 °F75.2 °F94 %29.73 in2.5 miNW (320°)13.8 mphRainHeavy Rain
5:35 PM75.2 °F75.2 °F100 %29.73 in3.0 miWNW (300°)12.7 mphRainHeavy Rain
5:55 PM75.2 °F73.4 °F94 %29.73 in10.0 miNW (310°)6.9 mphRainLight Rain
5:58 PM75.4 °F73.0 °F92 %29.61 in10.0 miNW (320°)6.9 mph0.56 inRainLight Rain
6:08 PM75.2 °F73.4 °F94 %29.74 in1.2 miNE (40°)5.8 mphRainRain
6:13 PM75.2 °F73.4 °F94 %29.74 in0.8 miNE (40°)4.6 mphRainLight Rain
6:18 PM77.0 °F75.2 °F94 %29.74 in1.0 miNNW (340°)2.3 mphRainLight Rain
6:23 PM77.0 °F75.2 °F94 %29.74 in4.0 miCalmRainLight Rain
6:27 PM77.0 °F75.2 °F94 %29.74 in10.0 miCalmScattered Clouds
6:51 PM77.0 °F75.2 °F94 %29.74 in9.0 miNW (310°)9.2 mphRainLight Rain
6:58 PM77.0 °F75.6 °F95 %29.62 in9.0 miNW (320°)11.5 mph0.13 inRainHeavy Rain
7:48 PM75.2 °F73.4 °F94 %29.74 in10.0 miVariable6.9 mphPartly Cloudy
7:58 PM76.6 °F73.8 °F91 %29.62 in6.0 miNNE (30°)6.9 mph0.21 inScattered Clouds
8:30 PM77.0 °F75.2 °F94 %29.76 in5.0 miNorth (360°)4.6 mphRainLight Rain
8:41 PM78.8 °F77.0 °F94 %29.76 in9.0 miNNW (330°)3.5 mphMostly Cloudy
8:58 PM78.3 °F76.3 °F94 %29.65 in10.0 miNNW (340°)3.5 mph0.01 inScattered Clouds
9:26 PM77.0 °F75.2 °F94 %29.79 in3.0 miENE (60°)10.4 mphRainLight Rain
9:31 PM77.0 °F75.2 °F94 %29.77 in1.8 miSSE (160°)2.3 mphRainHeavy Rain
9:36 PM77.0 °F75.2 °F94 %29.78 in2.5 miESE (110°)10.4 mphRainLight Rain
9:41 PM77.0 °F73.4 °F89 %29.79 in2.5 miVariable6.9 mphRainLight Rain
9:46 PM77.0 °F73.4 °F89 %29.79 in5.0 miNE (40°)15.0 mph24.2 mphRainHeavy Rain
9:51 PM75.2 °F73.4 °F94 %29.78 in1.5 miNE (40°)16.1 mph24.2 mphRainHeavy Rain
9:56 PM75.2 °F73.4 °F94 %29.79 in1.2 miEast (80°)13.8 mph20.7 mphRainHeavy Rain
9:58 PM75.2 °F73.4 °F94 %29.67 in1.2 miEast (90°)11.5 mph20.7 mph0.56 inRainHeavy Rain
10:03 PM75.2 °F75.2 °F100 %29.79 in2.0 miNE (50°)15.0 mphRainRain
10:08 PM77.0 °F75.2 °F94 %29.78 in5.0 miNE (50°)15.0 mph23.0 mphRainLight Rain
10:13 PM77.0 °F75.2 °F94 %29.77 in10.0 miNNE (30°)15.0 mph23.0 mphMostly Cloudy
10:18 PM77.0 °F75.2 °F94 %29.77 in10.0 miNNE (20°)10.4 mphScattered Clouds
10:35 PM77.0 °F75.2 °F94 %29.75 in10.0 miNorth (360°)5.8 mphRainLight Rain
10:57 PM77.0 °F75.2 °F94 %29.76 in10.0 miVariable2.3 mphPartly Cloudy
10:58 PM77.0 °F75.2 °F94 %29.64 in10.0 miVariable1.2 mph0.06 inPartly Cloudy
11:58 PM76.5 °F74.5 °F94 %29.63 in10.0 miWest (280°)2.3 mph0.00 inPartly Cloudy
Hourly data recorded from PGUA, located miles away from Achang Bay, Guam







STORIES FROM OUR PARTNERS